MDT,Max TemperatureF,Mean TemperatureF,Min TemperatureF,Max Dew PointF,MeanDew PointF,Min DewpointF,Max Humidity, Mean Humidity, Min Humidity, Max Sea Level PressureIn, Mean Sea Level PressureIn, Min Sea Level PressureIn, Max VisibilityMiles, Mean VisibilityMiles, Min VisibilityMiles, Max Wind SpeedMPH, Mean Wind SpeedMPH, Max Gust SpeedMPH,PrecipitationIn, CloudCover, Events, WindDirDegrees
2013-10-1,77,58,38,37,33,25,85,50,15,30.04,29.92,29.82,10,10,10,21,4,26,0.00,0,,258
2013-10-2,75,58,40,37,32,26,79,48,17,29.99,29.87,29.75,10,10,10,22,6,26,0.00,0,,224
2013-10-3,73,53,33,36,33,27,92,56,19,29.97,29.73,29.55,10,10,5,40,11,49,0.33,5,Rain-Snow,263
2013-10-4,43,38,32,34,30,22,100,74,48,30.38,30.11,29.90,10,6,1,25,10,32,0.16,7,Rain-Snow,279
2013-10-5,52,43,33,28,25,18,82,54,26,30.49,30.43,30.36,10,10,10,10,3,13,0.00,2,,101
2013-10-6,63,46,28,37,28,23,85,55,24,30.53,30.40,30.28,10,10,10,10,1,12,0.00,0,,122
2013-10-7,69,51,32,40,33,29,89,56,23,30.32,30.16,30.01,10,10,10,13,2,17,0.00,0,,172
2013-10-8,74,55,36,37,32,24,92,54,16,29.97,29.84,29.70,10,10,10,26,5,39,0.00,1,,263
2013-10-9,68,54,39,38,32,27,73,48,22,29.82,29.76,29.72,10,10,10,15,3,18,0.00,0,,221
2013-10-10,58,50,42,44,40,32,93,70,47,29.87,29.75,29.65,10,9,4,24,7,31,0.55,6,Rain,228
2013-10-11,54,48,41,41,39,37,89,74,59,30.08,29.96,29.82,10,10,10,17,5,26,T,8,Rain,234
2013-10-12,59,46,33,38,33,28,96,65,33,30.18,30.09,30.01,10,10,10,10,2,12,0.00,2,,200
2013-10-13,70,53,36,43,36,32,89,58,26,30.06,29.93,29.81,10,10,10,28,7,35,0.06,4,Rain-Thunderstorm,193
2013-10-14,46,43,39,43,38,36,93,79,65,30.19,30.05,29.87,10,9,2,18,5,23,0.80,8,Rain-Thunderstorm,257
2013-10-15,49,42,35,37,31,25,89,69,49,30.22,30.15,30.08,10,10,10,17,7,23,0.00,5,,312
2013-10-16,51,40,29,28,26,24,85,60,35,30.26,30.18,30.12,10,10,10,14,3,17,0.00,1,,268
2013-10-17,55,41,27,34,26,19,92,58,24,30.23,30.10,29.98,10,10,10,22,4,28,0.01,2,Rain,295
2013-10-18,50,40,30,34,24,15,72,48,24,30.27,30.16,30.04,10,10,10,18,6,25,T,2,Rain,272
2013-10-19,57,41,25,28,24,19,85,55,24,30.34,30.21,30.09,10,10,10,17,3,21,0.00,0,,185
2013-10-20,59,45,30,31,27,23,85,56,26,30.11,30.03,29.93,10,10,10,14,2,16,0.00,2,,238
2013-10-21,60,45,29,30,26,22,85,55,24,30.26,30.17,30.06,10,10,9,13,2,17,0.00,0,,193
2013-10-22,63,45,27,33,27,24,85,55,25,30.38,30.25,30.15,10,10,10,8,2,10,0.00,0,,146
2013-10-23,66,48,29,32,28,26,85,54,22,30.30,30.18,30.07,10,10,10,13,2,14,0.00,0,,227
2013-10-24,68,49,30,29,27,21,85,52,18,30.27,30.17,30.05,10,10,10,16,2,20,0.00,0,,231
2013-10-25,60,46,32,33,30,26,82,56,29,30.29,30.20,30.11,10,10,10,8,2,9,0.00,2,,146
2013-10-26,66,48,29,32,29,26,85,54,22,30.38,30.27,30.17,10,10,10,12,2,14,0.00,0,,214
2013-10-27,64,47,29,31,28,24,85,55,25,30.20,30.02,29.80,10,10,10,21,5,24,0.00,0,,175
2013-10-28,66,54,41,32,24,15,65,40,14,29.83,29.69,29.56,10,10,10,25,11,33,0.00,2,,156
2013-10-29,58,46,34,37,34,17,92,57,21,30.02,29.89,29.66,10,9,2,36,9,45,0.52,8,Rain-Snow,212
2013-10-30,41,38,34,36,34,31,92,83,73,30.02,29.97,29.94,10,9,2,18,3,22,0.12,8,Rain-Snow,180
2013-10-31,42,38,34,34,33,29,92,75,57,30.17,30.09,30.02,10,10,10,15,3,18,T,8,Rain,259